Time,TemperatureF,DewpointF,PressureIn,WindDirection,WindDirectionDegrees,WindSpeedMPH,WindSpeedGustMPH,Humidity,HourlyPrecipIn,Conditions,Clouds,dailyrainin,SoftwareType,DateUTC
2013-04-22 00:03:00,41.0,33.0,30.35,ENE,74,8.0,-999.0,73,-99.99,,,-99.99,,2013-04-22 04:03:00,
2013-04-22 00:12:00,41.0,33.0,30.35,ENE,74,8.0,-999.0,73,-99.99,,,-99.99,,2013-04-22 04:12:00,
2013-04-22 00:23:00,41.0,33.0,30.35,ENE,74,8.0,-999.0,73,-99.99,,,-99.99,,2013-04-22 04:23:00,
2013-04-22 00:33:00,41.0,33.0,30.33,NE,43,8.0,-999.0,74,-99.99,,,-99.99,,2013-04-22 04:33:00,
2013-04-22 00:43:00,41.0,33.0,30.33,NE,43,8.0,-999.0,74,-99.99,,,-99.99,,2013-04-22 04:43:00,
2013-04-22 00:53:00,40.0,33.0,30.33,NE,49,9.0,-999.0,75,-99.99,,,-99.99,,2013-04-22 04:53:00,
2013-04-22 01:03:00,40.0,33.0,30.32,East,95,7.0,-999.0,76,-99.99,,,-99.99,,2013-04-22 05:03:00,
2013-04-22 01:12:00,40.0,33.0,30.32,East,95,7.0,-999.0,76,-99.99,,,-99.99,,2013-04-22 05:12:00,
2013-04-22 01:22:00,40.0,33.0,30.31,ENE,61,7.0,-999.0,77,-99.99,,,-99.99,,2013-04-22 05:22:00,
2013-04-22 01:32:00,40.0,34.0,30.30,ENE,58,6.0,-999.0,78,-99.99,,,-99.99,,2013-04-22 05:32:00,
2013-04-22 01:42:00,40.0,34.0,30.30,ENE,58,6.0,-999.0,78,-99.99,,,-99.99,,2013-04-22 05:42:00,
2013-04-22 01:52:00,40.0,34.0,30.30,NE,44,6.0,-999.0,78,-99.99,,,-99.99,,2013-04-22 05:52:00,
2013-04-22 02:02:00,39.0,33.0,30.30,East,85,6.0,-999.0,79,-99.99,,,-99.99,,2013-04-22 06:02:00,
2013-04-22 02:12:00,39.0,33.0,30.30,East,85,6.0,-999.0,79,-99.99,,,-99.99,,2013-04-22 06:12:00,
2013-04-22 02:21:00,39.0,33.0,30.29,NE,43,6.0,-999.0,80,-99.99,,,-99.99,,2013-04-22 06:21:00,
2013-04-22 02:32:00,39.0,34.0,30.29,East,88,7.0,-999.0,81,-99.99,,,-99.99,,2013-04-22 06:32:00,
2013-04-22 02:42:00,39.0,34.0,30.29,East,88,7.0,-999.0,81,-99.99,,,-99.99,,2013-04-22 06:42:00,
2013-04-22 02:52:00,38.0,33.0,30.28,ESE,120,7.0,-999.0,82,-99.99,,,-99.99,,2013-04-22 06:52:00,
2013-04-22 03:01:00,38.0,33.0,30.29,ENE,76,6.0,-999.0,82,-99.99,,,-99.99,,2013-04-22 07:01:00,
2013-04-22 03:12:00,38.0,33.0,30.29,ENE,76,6.0,-999.0,82,-99.99,,,-99.99,,2013-04-22 07:12:00,
2013-04-22 03:21:00,38.0,33.0,30.28,East,98,7.0,-999.0,83,-99.99,,,-99.99,,2013-04-22 07:21:00,
2013-04-22 03:32:00,37.0,33.0,30.27,East,92,6.0,-999.0,84,-99.99,,,-99.99,,2013-04-22 07:32:00,
2013-04-22 03:42:00,37.0,33.0,30.27,East,92,6.0,-999.0,84,-99.99,,,-99.99,,2013-04-22 07:42:00,
2013-04-22 03:52:00,37.0,33.0,30.27,East,83,7.0,-999.0,85,-99.99,,,-99.99,,2013-04-22 07:52:00,
2013-04-22 04:02:00,37.0,33.0,30.27,East,79,7.0,-999.0,85,-99.99,,,-99.99,,2013-04-22 08:02:00,
2013-04-22 04:11:00,37.0,33.0,30.27,East,79,7.0,-999.0,85,-99.99,,,-99.99,,2013-04-22 08:11:00,
2013-04-22 04:22:00,37.0,33.0,30.27,ENE,64,7.0,-999.0,86,-99.99,,,-99.99,,2013-04-22 08:22:00,
2013-04-22 04:32:00,36.0,33.0,30.27,East,99,7.0,-999.0,87,-99.99,,,-99.99,,2013-04-22 08:32:00,
2013-04-22 04:42:00,36.0,33.0,30.27,East,99,7.0,-999.0,87,-99.99,,,-99.99,,2013-04-22 08:42:00,
2013-04-22 04:53:00,36.0,33.0,30.27,ENE,58,7.0,-999.0,87,-99.99,,,-99.99,,2013-04-22 08:53:00,
2013-04-22 05:01:00,36.0,33.0,30.28,East,81,5.0,-999.0,88,-99.99,,,-99.99,,2013-04-22 09:01:00,
2013-04-22 05:11:00,36.0,33.0,30.28,East,81,5.0,-999.0,88,-99.99,,,-99.99,,2013-04-22 09:11:00,
2013-04-22 05:21:00,36.0,33.0,30.28,NE,43,6.0,-999.0,89,-99.99,,,-99.99,,2013-04-22 09:21:00,
2013-04-22 05:33:00,36.0,33.0,30.29,East,95,6.0,-999.0,90,-99.99,,,-99.99,,2013-04-22 09:33:00,
2013-04-22 05:42:00,36.0,33.0,30.29,East,95,6.0,-999.0,90,-99.99,,,-99.99,,2013-04-22 09:42:00,
2013-04-22 05:52:00,35.0,32.0,30.29,ENE,78,6.0,-999.0,90,-99.99,,,-99.99,,2013-04-22 09:52:00,
2013-04-22 06:03:00,35.0,33.0,30.29,East,93,6.0,-999.0,91,-99.99,,,-99.99,,2013-04-22 10:03:00,
2013-04-22 06:12:00,35.0,33.0,30.29,East,93,6.0,-999.0,91,-99.99,,,-99.99,,2013-04-22 10:12:00,
2013-04-22 06:22:00,35.0,33.0,30.30,ENE,71,5.0,-999.0,92,-99.99,,,-99.99,,2013-04-22 10:22:00,
2013-04-22 06:32:00,35.0,33.0,30.31,ESE,107,6.0,-999.0,91,-99.99,,,-99.99,,2013-04-22 10:32:00,
2013-04-22 06:42:00,35.0,33.0,30.31,ESE,107,6.0,-999.0,91,-99.99,,,-99.99,,2013-04-22 10:42:00,
2013-04-22 06:53:00,35.0,33.0,30.32,ENE,63,5.0,-999.0,92,-99.99,,,-99.99,,2013-04-22 10:53:00,
2013-04-22 07:02:00,35.0,33.0,30.33,NE,49,6.0,-999.0,92,-99.99,,,-99.99,,2013-04-22 11:02:00,
2013-04-22 07:12:00,35.0,33.0,30.33,NE,49,6.0,-999.0,92,-99.99,,,-99.99,,2013-04-22 11:12:00,
2013-04-22 07:22:00,34.0,32.0,30.35,ENE,75,5.0,-999.0,92,-99.99,,,-99.99,,2013-04-22 11:22:00,
2013-04-22 07:32:00,34.0,32.0,30.36,NE,44,5.0,-999.0,93,-99.99,,,-99.99,,2013-04-22 11:32:00,
2013-04-22 07:42:00,34.0,32.0,30.36,NE,44,5.0,-999.0,93,-99.99,,,-99.99,,2013-04-22 11:42:00,
2013-04-22 07:52:00,35.0,32.0,30.36,ENE,72,5.0,-999.0,90,-99.99,,,-99.99,,2013-04-22 11:52:00,
2013-04-22 08:02:00,35.0,32.0,30.35,ENE,70,4.0,-999.0,90,-99.99,,,-99.99,,2013-04-22 12:02:00,
2013-04-22 08:12:00,35.0,32.0,30.35,ENE,70,4.0,-999.0,90,-99.99,,,-99.99,,2013-04-22 12:12:00,
2013-04-22 08:21:00,35.0,32.0,30.36,East,96,5.0,-999.0,90,-99.99,,,-99.99,,2013-04-22 12:21:00,
2013-04-22 08:32:00,36.0,33.0,30.36,ENE,73,5.0,-999.0,89,-99.99,,,-99.99,,2013-04-22 12:32:00,
2013-04-22 08:42:00,36.0,33.0,30.36,ENE,73,5.0,-999.0,89,-99.99,,,-99.99,,2013-04-22 12:42:00,
2013-04-22 08:52:00,37.0,34.0,30.35,ENE,73,4.0,-999.0,87,-99.99,,,-99.99,,2013-04-22 12:52:00,
2013-04-22 09:01:00,37.0,33.0,30.35,ESE,105,4.0,-999.0,86,-99.99,,,-99.99,,2013-04-22 13:01:00,
2013-04-22 09:11:00,37.0,33.0,30.35,ESE,105,4.0,-999.0,86,-99.99,,,-99.99,,2013-04-22 13:11:00,
2013-04-22 09:22:00,38.0,34.0,30.35,East,94,4.0,-999.0,84,-99.99,,,-99.99,,2013-04-22 13:22:00,
2013-04-22 09:32:00,39.0,34.0,30.35,ESE,107,4.0,-999.0,81,-99.99,,,-99.99,,2013-04-22 13:32:00,
2013-04-22 09:42:00,39.0,34.0,30.35,ESE,107,4.0,-999.0,81,-99.99,,,-99.99,,2013-04-22 13:42:00,
2013-04-22 09:53:00,41.0,34.0,30.35,SE,139,2.0,-999.0,77,-99.99,,,-99.99,,2013-04-22 13:53:00,
2013-04-22 10:02:00,43.0,36.0,30.33,East,97,1.0,-999.0,76,-99.99,,,-99.99,,2013-04-22 14:02:00,
2013-04-22 10:12:00,43.0,36.0,30.33,East,97,1.0,-999.0,76,-99.99,,,-99.99,,2013-04-22 14:12:00,
2013-04-22 10:21:00,44.0,34.0,30.32,WNW,282,1.0,-999.0,69,-99.99,,,-99.99,,2013-04-22 14:21:00,
2013-04-22 10:33:00,46.0,35.0,30.30,SE,140,1.0,-999.0,66,-99.99,,,-99.99,,2013-04-22 14:33:00,
2013-04-22 10:42:00,46.0,35.0,30.30,SE,140,1.0,-999.0,66,-99.99,,,-99.99,,2013-04-22 14:42:00,
2013-04-22 10:52:00,47.0,35.0,30.31,ESE,107,1.0,-999.0,63,-99.99,,,-99.99,,2013-04-22 14:52:00,
2013-04-22 11:02:00,47.0,35.0,30.30,East,96,1.0,-999.0,64,-99.99,,,-99.99,,2013-04-22 15:02:00,
2013-04-22 11:12:00,47.0,35.0,30.30,East,96,1.0,-999.0,64,-99.99,,,-99.99,,2013-04-22 15:12:00,
2013-04-22 11:22:00,47.0,35.0,30.31,South,171,2.0,-999.0,62,-99.99,,,-99.99,,2013-04-22 15:22:00,
2013-04-22 11:33:00,48.0,35.0,30.29,East,95,2.0,-999.0,60,-99.99,,,-99.99,,2013-04-22 15:33:00,
2013-04-22 11:43:00,48.0,35.0,30.29,East,95,2.0,-999.0,60,-99.99,,,-99.99,,2013-04-22 15:43:00,
2013-04-22 11:53:00,49.0,35.0,30.29,NNE,14,3.0,-999.0,58,-99.99,,,-99.99,,2013-04-22 15:53:00,
2013-04-22 12:03:00,50.0,35.0,30.29,ESE,108,3.0,-999.0,57,-99.99,,,-99.99,,2013-04-22 16:03:00,
2013-04-22 12:12:00,50.0,35.0,30.29,ESE,108,3.0,-999.0,57,-99.99,,,-99.99,,2013-04-22 16:12:00,
2013-04-22 12:23:00,50.0,34.0,30.29,ESE,108,3.0,-999.0,55,-99.99,,,-99.99,,2013-04-22 16:23:00,
2013-04-22 12:33:00,51.0,36.0,30.28,SSE,164,4.0,-999.0,56,-99.99,,,-99.99,,2013-04-22 16:33:00,
2013-04-22 12:42:00,51.0,36.0,30.28,SSE,164,4.0,-999.0,56,-99.99,,,-99.99,,2013-04-22 16:42:00,
2013-04-22 12:52:00,52.0,35.0,30.27,East,92,3.0,-999.0,53,-99.99,,,-99.99,,2013-04-22 16:52:00,
2013-04-22 13:02:00,51.0,35.0,30.26,ESE,122,4.0,-999.0,55,-99.99,,,-99.99,,2013-04-22 17:02:00,
2013-04-22 13:12:00,51.0,35.0,30.26,ESE,122,4.0,-999.0,55,-99.99,,,-99.99,,2013-04-22 17:12:00,
2013-04-22 13:22:00,52.0,37.0,30.26,SE,128,3.0,-999.0,57,-99.99,,,-99.99,,2013-04-22 17:22:00,
2013-04-22 13:32:00,53.0,35.0,30.25,NE,54,4.0,-999.0,51,-99.99,,,-99.99,,2013-04-22 17:32:00,
2013-04-22 13:42:00,53.0,35.0,30.25,NE,54,4.0,-999.0,51,-99.99,,,-99.99,,2013-04-22 17:42:00,
2013-04-22 13:52:00,53.0,36.0,30.24,ESE,116,4.0,-999.0,53,-99.99,,,-99.99,,2013-04-22 17:52:00,
2013-04-22 14:01:00,53.0,35.0,30.24,ESE,114,4.0,-999.0,51,-99.99,,,-99.99,,2013-04-22 18:01:00,
2013-04-22 14:12:00,53.0,35.0,30.24,ESE,114,4.0,-999.0,51,-99.99,,,-99.99,,2013-04-22 18:12:00,
2013-04-22 14:22:00,54.0,35.0,30.24,SE,143,4.0,-999.0,48,-99.99,,,-99.99,,2013-04-22 18:22:00,
2013-04-22 14:32:00,55.0,36.0,30.23,SE,146,3.0,-999.0,48,-99.99,,,-99.99,,2013-04-22 18:32:00,
2013-04-22 14:42:00,55.0,36.0,30.23,SE,146,3.0,-999.0,48,-99.99,,,-99.99,,2013-04-22 18:42:00,
2013-04-22 14:52:00,55.0,35.0,30.24,SE,146,4.0,-999.0,47,-99.99,,,-99.99,,2013-04-22 18:52:00,
2013-04-22 15:01:00,55.0,35.0,30.23,ENE,75,5.0,-999.0,47,-99.99,,,-99.99,,2013-04-22 19:01:00,
2013-04-22 15:12:00,55.0,35.0,30.23,ENE,75,5.0,-999.0,47,-99.99,,,-99.99,,2013-04-22 19:12:00,
2013-04-22 15:22:00,55.0,35.0,30.23,East,99,4.0,-999.0,47,-99.99,,,-99.99,,2013-04-22 19:22:00,
2013-04-22 15:32:00,55.0,34.0,30.22,ESE,103,4.0,-999.0,45,-99.99,,,-99.99,,2013-04-22 19:32:00,
2013-04-22 15:42:00,55.0,34.0,30.22,ESE,103,4.0,-999.0,45,-99.99,,,-99.99,,2013-04-22 19:42:00,
2013-04-22 15:53:00,54.0,34.0,30.22,ESE,107,6.0,-999.0,47,-99.99,,,-99.99,,2013-04-22 19:53:00,
2013-04-22 16:02:00,55.0,35.0,30.22,SSE,154,4.0,-999.0,47,-99.99,,,-99.99,,2013-04-22 20:02:00,
2013-04-22 16:11:00,55.0,35.0,30.22,SSE,154,4.0,-999.0,47,-99.99,,,-99.99,,2013-04-22 20:11:00,
2013-04-22 16:22:00,54.0,35.0,30.22,South,185,5.0,-999.0,48,-99.99,,,-99.99,,2013-04-22 20:22:00,
2013-04-22 16:32:00,54.0,35.0,30.21,SSE,152,5.0,-999.0,49,-99.99,,,-99.99,,2013-04-22 20:32:00,
2013-04-22 16:42:00,54.0,35.0,30.21,SSE,152,5.0,-999.0,49,-99.99,,,-99.99,,2013-04-22 20:42:00,
2013-04-22 16:52:00,54.0,35.0,30.21,ESE,109,4.0,-999.0,49,-99.99,,,-99.99,,2013-04-22 20:52:00,
2013-04-22 17:02:00,54.0,36.0,30.20,ESE,111,4.0,-999.0,50,-99.99,,,-99.99,,2013-04-22 21:02:00,
2013-04-22 17:12:00,54.0,36.0,30.20,ESE,111,4.0,-999.0,50,-99.99,,,-99.99,,2013-04-22 21:12:00,
2013-04-22 17:21:00,54.0,36.0,30.20,East,100,4.0,-999.0,51,-99.99,,,-99.99,,2013-04-22 21:21:00,
2013-04-22 17:32:00,54.0,37.0,30.20,ENE,72,3.0,-999.0,52,-99.99,,,-99.99,,2013-04-22 21:32:00,
2013-04-22 17:43:00,54.0,37.0,30.20,ENE,72,3.0,-999.0,52,-99.99,,,-99.99,,2013-04-22 21:43:00,
2013-04-22 17:53:00,53.0,37.0,30.21,ESE,114,5.0,-999.0,54,-99.99,,,-99.99,,2013-04-22 21:53:00,
2013-04-22 18:03:00,53.0,37.0,30.20,East,100,4.0,-999.0,54,-99.99,,,-99.99,,2013-04-22 22:03:00,
2013-04-22 18:12:00,53.0,37.0,30.20,East,100,4.0,-999.0,54,-99.99,,,-99.99,,2013-04-22 22:12:00,
2013-04-22 18:22:00,53.0,37.0,30.20,ESE,104,3.0,-999.0,54,-99.99,,,-99.99,,2013-04-22 22:22:00,
2013-04-22 18:33:00,52.0,37.0,30.21,ESE,105,5.0,-999.0,56,-99.99,,,-99.99,,2013-04-22 22:33:00,
2013-04-22 18:42:00,52.0,37.0,30.21,ESE,105,5.0,-999.0,56,-99.99,,,-99.99,,2013-04-22 22:42:00,
2013-04-22 18:52:00,51.0,36.0,30.22,SE,125,5.0,-999.0,56,-99.99,,,-99.99,,2013-04-22 22:52:00,
2013-04-22 19:02:00,50.0,35.0,30.21,ESE,104,5.0,-999.0,57,-99.99,,,-99.99,,2013-04-22 23:02:00,
2013-04-22 19:11:00,50.0,36.0,30.21,East,98,5.0,-999.0,58,-99.99,,,-99.99,,2013-04-22 23:11:00,
2013-04-22 19:22:00,50.0,36.0,30.21,East,98,5.0,-999.0,58,-99.99,,,-99.99,,2013-04-22 23:22:00,
2013-04-22 19:33:00,49.0,35.0,30.21,East,101,4.0,-999.0,59,-99.99,,,-99.99,,2013-04-22 23:33:00,
2013-04-22 19:42:00,49.0,35.0,30.21,East,101,4.0,-999.0,59,-99.99,,,-99.99,,2013-04-22 23:42:00,
2013-04-22 19:52:00,48.0,35.0,30.23,ESE,115,4.0,-999.0,61,-99.99,,,-99.99,,2013-04-22 23:52:00,
2013-04-22 20:02:00,47.0,35.0,30.23,East,92,5.0,-999.0,63,-99.99,,,-99.99,,2013-04-23 00:02:00,
2013-04-22 20:12:00,47.0,35.0,30.23,East,92,5.0,-999.0,63,-99.99,,,-99.99,,2013-04-23 00:12:00,
2013-04-22 20:21:00,46.0,35.0,30.23,East,97,4.0,-999.0,65,-99.99,,,-99.99,,2013-04-23 00:21:00,
2013-04-22 20:32:00,45.0,34.0,30.23,East,101,5.0,-999.0,66,-99.99,,,-99.99,,2013-04-23 00:32:00,
2013-04-22 20:42:00,45.0,34.0,30.23,East,101,5.0,-999.0,66,-99.99,,,-99.99,,2013-04-23 00:42:00,
2013-04-22 20:52:00,45.0,35.0,30.25,East,101,5.0,-999.0,68,-99.99,,,-99.99,,2013-04-23 00:52:00,
2013-04-22 21:01:00,44.0,34.0,30.25,ESE,104,5.0,-999.0,68,-99.99,,,-99.99,,2013-04-23 01:01:00,
2013-04-22 21:11:00,44.0,34.0,30.25,ESE,104,5.0,-999.0,68,-99.99,,,-99.99,,2013-04-23 01:11:00,
2013-04-22 21:21:00,44.0,34.0,30.22,East,96,6.0,-999.0,69,-99.99,,,-99.99,,2013-04-23 01:21:00,
2013-04-22 21:32:00,44.0,34.0,30.22,ENE,73,6.0,-999.0,68,-99.99,,,-99.99,,2013-04-23 01:32:00,
2013-04-22 21:42:00,44.0,34.0,30.22,ENE,73,6.0,-999.0,68,-99.99,,,-99.99,,2013-04-23 01:42:00,
2013-04-22 21:52:00,43.0,33.0,30.22,East,93,6.0,-999.0,68,-99.99,,,-99.99,,2013-04-23 01:52:00,
2013-04-22 22:02:00,43.0,34.0,30.23,East,82,7.0,-999.0,69,-99.99,,,-99.99,,2013-04-23 02:02:00,
2013-04-22 22:12:00,43.0,34.0,30.23,East,82,7.0,-999.0,69,-99.99,,,-99.99,,2013-04-23 02:12:00,
2013-04-22 22:21:00,43.0,34.0,30.22,ESE,102,7.0,-999.0,70,-99.99,,,-99.99,,2013-04-23 02:21:00,
2013-04-22 22:32:00,42.0,33.0,30.22,East,86,7.0,-999.0,71,-99.99,,,-99.99,,2013-04-23 02:32:00,
2013-04-22 22:42:00,42.0,33.0,30.22,East,86,7.0,-999.0,71,-99.99,,,-99.99,,2013-04-23 02:42:00,
2013-04-22 22:52:00,42.0,33.0,30.23,East,89,7.0,-999.0,71,-99.99,,,-99.99,,2013-04-23 02:52:00,
2013-04-22 23:01:00,42.0,33.0,30.23,East,92,7.0,-999.0,70,-99.99,,,-99.99,,2013-04-23 03:01:00,
2013-04-22 23:11:00,42.0,33.0,30.23,East,92,7.0,-999.0,70,-99.99,,,-99.99,,2013-04-23 03:11:00,
2013-04-22 23:21:00,41.0,32.0,30.22,ESE,102,7.0,-999.0,69,-99.99,,,-99.99,,2013-04-23 03:21:00,
2013-04-22 23:33:00,41.0,32.0,30.22,ENE,71,6.0,-999.0,69,-99.99,,,-99.99,,2013-04-23 03:33:00,
2013-04-22 23:43:00,41.0,32.0,30.22,ENE,71,6.0,-999.0,69,-99.99,,,-99.99,,2013-04-23 03:43:00,
2013-04-22 23:53:00,41.0,32.0,30.22,East,90,6.0,-999.0,69,-99.99,,,-99.99,,2013-04-23 03:53:00,